Location: Newark
(34.1333°N, 7.9667°W)
Time: 03:53:32
(UTC+00:00)

UKube-1 - Pass Details

Date: 14 June 2023
Orbit: 598 x 602 km, 98.3° (Epoch: 28 September)

Event Time Altitude Azimuth Distance (km) Brightness Sun altitude
Rises 00:52:15 0° 355° (N) 2,853 ? -32.4°
Reaches altitude 10° 00:54:52 10° 338° (NNW) 1,944 ? -32.4°
Enters shadow 00:56:26 17° 319° (NW) 1,547 ? -32.3°
